CW9197 Juva FI current weather conditions

sailwx.info

Wind from 092 at 1 knots gusting 3

Air temperature 16.7° C
Dewpoint 3.7° C

Last reported at 2015-Jul-06 14:55 UTC.
Time now 2015-Jul-06 15:44 UTC

Location: N 61°53' E 027°53'.
View on Google Maps.

See reports from other nearby stations

  
Tides and Currents Weather Stations Pressure Air Temp Water Temp Dewpoint Dewpoint Depression Visibility Wind Speed Wind Dir Waves Ship Positions
date/time (UTC)wind fromknots sea level pressurealtimeterstation pressurevisibilityair tempwater tempwave heightnotes
2015-Jul-06 14:55 092 1 gusting 3 16.7
2015-Jul-06 14:45 082 0 gusting 3 16.7
2015-Jul-06 14:35 062 0 gusting 3 17.2
2015-Jul-06 14:25 186 0 gusting 4 16.7
2015-Jul-06 14:15 058 16.7
2015-Jul-06 14:05 073 0 gusting 4 16.7
2015-Jul-06 13:55 068 2 gusting 6 16.7
2015-Jul-06 13:45 064 3 gusting 6 16.7
2015-Jul-06 13:35 087 17.2
2015-Jul-06 13:25 212 1 gusting 4 17.2
2015-Jul-06 13:15 208 0 gusting 6 17.2
2015-Jul-06 13:05 202 1 gusting 4 17.8
2015-Jul-06 12:55 253 1 gusting 5 17.8
2015-Jul-06 12:45 230 0 gusting 3 17.8
2015-Jul-06 12:35 050 0 gusting 4 17.8
2015-Jul-06 12:25 211 0 gusting 5 18.3
2015-Jul-06 12:15 207 0 gusting 5 18.3
2015-Jul-06 12:05 322 0 gusting 4 17.8
2015-Jul-06 11:55 268 1 gusting 5 18.3
2015-Jul-06 11:45 188 1 gusting 5 18.9
2015-Jul-06 11:35 206 0 gusting 4 18.3
2015-Jul-06 11:25 205 18.3
2015-Jul-06 11:15 198 0 gusting 2 18.9
2015-Jul-06 11:05 192 1 gusting 6 18.9
2015-Jul-06 10:55 203 0 gusting 3 18.9
2015-Jul-06 10:45 188 0 gusting 3 18.9
2015-Jul-06 10:35 190 1 gusting 5 18.9
2015-Jul-06 10:25 152 0 gusting 2 18.3
2015-Jul-06 10:15 193 0 gusting 5 19.4
2015-Jul-06 10:05 219 1 gusting 4 19.4
2015-Jul-06 09:55 201 1 gusting 4 19.4
2015-Jul-06 09:45 124 0 gusting 2 18.9
2015-Jul-06 09:35 199 1 gusting 3 19.4
2015-Jul-06 09:25 182 1 gusting 4 18.9
2015-Jul-06 09:15 250 1 gusting 4 18.9
2015-Jul-06 09:05 252 1 gusting 3 18.9
2015-Jul-06 08:55 204 2 gusting 4 19.4
2015-Jul-06 08:45 210 1 gusting 4 19.4
2015-Jul-06 08:35 193 0 gusting 4 18.9
2015-Jul-06 08:25 213 1 gusting 3 18.3
2015-Jul-06 08:15 208 1 gusting 5 18.3
2015-Jul-06 08:05 233 0 gusting 2 18.3
2015-Jul-06 07:55 161 16.7
2015-Jul-06 07:45 226 16.1
2015-Jul-06 07:35 205 17.2
2015-Jul-06 07:25 209 1 gusting 4 18.9
2015-Jul-06 07:15 245 0 gusting 3 17.8
2015-Jul-06 07:05 218 1 gusting 5 18.3
2015-Jul-06 06:55 051 0 gusting 3 17.2
2015-Jul-06 06:45 182 0 gusting 6 17.8
2015-Jul-06 06:35 063 0 gusting 3 17.8
2015-Jul-06 06:25 063 0 gusting 3 16.7
2015-Jul-06 06:15 056 1 gusting 3 17.2
2015-Jul-06 06:05 305 17.8
2015-Jul-06 05:55 050 17.8
2015-Jul-06 05:45 025 17.8
2015-Jul-06 05:35 070 0 gusting 4 17.2
2015-Jul-06 05:25 228 17.2
2015-Jul-06 05:15 310 17.2
2015-Jul-06 05:05 317 16.1
2015-Jul-06 04:55 243 15.6
2015-Jul-06 04:45 269 15.6
2015-Jul-06 04:35 228 15.6
2015-Jul-06 04:25 273 15.0
2015-Jul-06 04:15 247 14.4
2015-Jul-06 04:05 135 13.9
2015-Jul-06 03:55 202 13.3
2015-Jul-06 03:45 135 13.3
2015-Jul-06 03:35 180 12.8
2015-Jul-06 03:25 315 12.2
2015-Jul-06 03:15 180 11.7
2015-Jul-06 03:05 180 11.7
2015-Jul-06 02:55 180 11.1
2015-Jul-06 02:45 180 10.6
2015-Jul-06 02:35 180 10.6
2015-Jul-06 02:25 180 9.4
2015-Jul-06 02:15 180 8.3
2015-Jul-06 02:05 194 7.2
2015-Jul-06 01:55 247 6.1
2015-Jul-06 01:45 6.1
2015-Jul-06 01:35 6.1
2015-Jul-06 01:25 6.1
2015-Jul-06 01:15 6.1
2015-Jul-06 01:05 6.1
2015-Jul-06 00:55 6.1
2015-Jul-06 00:45 135 6.1
2015-Jul-06 00:35 187 6.7
2015-Jul-06 00:25 6.7
2015-Jul-06 00:15 6.7
2015-Jul-06 00:05 251 6.7
2015-Jul-05 23:55 270 7.2
2015-Jul-05 23:45 7.2
2015-Jul-05 23:35 7.2
2015-Jul-05 23:25 7.2
2015-Jul-05 23:15 7.2
2015-Jul-05 23:05 6.7
2015-Jul-05 22:55 358 7.2
2015-Jul-05 22:45 7.2
2015-Jul-05 22:35 027 7.2
2015-Jul-05 22:25 038 7.2
2015-Jul-05 22:15 033 7.2
2015-Jul-05 22:05 045 7.8
2015-Jul-05 21:55 066 7.8
2015-Jul-05 21:45 7.8
2015-Jul-05 21:35 022 7.8
2015-Jul-05 21:25 016 8.3
2015-Jul-05 21:15 022 8.3
2015-Jul-05 21:05 025 8.9
2015-Jul-05 20:55 038 8.9
2015-Jul-05 20:45 043 0 gusting 0 8.9
2015-Jul-05 20:35 050 9.4
2015-Jul-05 20:25 048 9.4
2015-Jul-05 20:15 049 9.4
2015-Jul-05 20:05 054 0 gusting 3 10.0
2015-Jul-05 19:55 052 0 gusting 1 10.0
2015-Jul-05 19:45 053 0 gusting 0 10.6
2015-Jul-05 19:35 054 0 gusting 1 10.6
2015-Jul-05 19:25 060 0 gusting 1 11.1
2015-Jul-05 19:15 057 0 gusting 1 11.1
2015-Jul-05 19:05 051 0 gusting 1 11.7
2015-Jul-05 18:55 055 0 gusting 3 11.7
2015-Jul-05 18:45 061 0 gusting 2 11.7
2015-Jul-05 18:35 060 0 gusting 1
2015-Jul-05 18:30 050 0 gusting 2 12.2
2015-Jul-05 18:20 052 2 gusting 5 12.8
2015-Jul-05 18:10 053 0 gusting 3 12.8
2015-Jul-05 18:00 044 1 gusting 5 13.3
2015-Jul-05 17:50 039 1 gusting 6 13.3
2015-Jul-05 17:40 044 1 gusting 7 13.3
2015-Jul-05 17:30 053 1 gusting 7 13.9
2015-Jul-05 17:20 047 2 gusting 7 13.9
2015-Jul-05 17:10 054 2 gusting 7 13.9
2015-Jul-05 17:00 012 0 gusting 3 14.4
2015-Jul-05 16:50 002 2 gusting 7 14.4
2015-Jul-05 16:40 017 2 gusting 7 14.4
2015-Jul-05 16:30 017 2 gusting 7 14.4
2015-Jul-05 16:20 032 3 gusting 8 14.4
2015-Jul-05 16:10 023 2 gusting 7 14.4
2015-Jul-05 16:00 017 3 gusting 9 15.0
2015-Jul-05 15:10 017 3 gusting 8 15.6
2015-Jul-05 15:00 017 4 gusting 8 15.6
2015-Jul-05 14:50 040 2 gusting 6 16.1
2015-Jul-05 14:40 345 3 gusting 9 16.1
2015-Jul-05 14:30 034 5 gusting 6
2015-Jul-05 08:35 337 3 gusting 11 17.8
2015-Jul-05 08:25 029 2 gusting 6 18.9
2015-Jul-05 08:15 337 4 gusting 13 18.3
2015-Jul-05 08:05 351 3 gusting 9 18.9
2015-Jul-05 07:55 357 4 gusting 10 19.4
2015-Jul-05 07:45 340 3 gusting 10 18.9
2015-Jul-05 07:35 345 3 gusting 9 18.9
2015-Jul-05 07:25 001 2 gusting 7 17.8
2015-Jul-05 07:15 306 2 gusting 12 18.3
2015-Jul-05 07:05 343 3 gusting 9 17.2
2015-Jul-05 06:55 299 1 gusting 4 16.7
2015-Jul-05 06:45 294 2 gusting 7 16.7
2015-Jul-05 06:35 303 2 gusting 7 16.1
2015-Jul-05 06:25 344 1 gusting 7 16.1
2015-Jul-05 06:15 291 3 gusting 7 16.1
2015-Jul-05 06:05 280 2 gusting 6 17.2
2015-Jul-05 05:55 294 2 gusting 7 17.8
2015-Jul-05 05:45 301 3 gusting 8 17.2
2015-Jul-05 05:35 327 1 gusting 6 15.6
2015-Jul-05 05:25 325 1 gusting 6 15.6
2015-Jul-05 05:15 005 1 gusting 6 15.6
2015-Jul-05 05:05 339 1 gusting 8 16.1
2015-Jul-05 04:55 337 1 gusting 5 16.1
2015-Jul-05 04:45 342 1 gusting 6 16.1
2015-Jul-05 04:35 341 1 gusting 7 17.2
2015-Jul-05 04:25 002 2 gusting 10 17.2
2015-Jul-05 04:15 352 2 gusting 6 17.2
2015-Jul-05 04:05 001 2 gusting 7 17.2
2015-Jul-05 03:55 020 2 gusting 7 16.7
2015-Jul-05 03:45 347 2 gusting 7 16.7
2015-Jul-05 03:35 359 1 gusting 6 16.1
2015-Jul-05 03:25 350 3 gusting 6 16.1
2015-Jul-05 03:15 342 0 gusting 4 15.6
2015-Jul-05 03:05 348 1 gusting 5 15.0
2015-Jul-05 02:55 016 0 gusting 4 14.4
2015-Jul-05 02:45 016 0 gusting 6 14.4
2015-Jul-05 02:35 005 0 gusting 2 13.9
2015-Jul-05 02:25 350 0 gusting 6 13.9
2015-Jul-05 02:15 348 0 gusting 4 13.3
2015-Jul-05 02:05 351 1 gusting 6 12.8
2015-Jul-05 01:55 335 1 gusting 5 12.2
2015-Jul-05 01:45 356 0 gusting 5 11.7
2015-Jul-05 01:35 321 1 gusting 5 12.2
2015-Jul-05 01:25 317 0 gusting 6 12.2
2015-Jul-05 01:15 318 0 gusting 2 12.2
2015-Jul-05 01:05 332 0 gusting 5 12.8
2015-Jul-05 00:55 323 0 gusting 3 12.8
2015-Jul-05 00:45 348 0 gusting 5 12.8
2015-Jul-05 00:35 324 0 gusting 5 12.8
2015-Jul-05 00:25 348 12.8
2015-Jul-05 00:15 345 0 gusting 6 12.8
2015-Jul-05 00:05 351 0 gusting 3 12.8
2015-Jul-04 23:55 343 12.8
2015-Jul-04 23:45 022 12.8
2015-Jul-04 23:35 004 0 gusting 5 13.3
2015-Jul-04 23:25 011 1 gusting 5 13.3
2015-Jul-04 23:15 032 0 gusting 6 13.9
2015-Jul-04 23:05 353 2 gusting 6 13.9
2015-Jul-04 22:55 353 1 gusting 6 13.9
2015-Jul-04 22:45 351 2 gusting 7 14.4
2015-Jul-04 22:35 356 3 gusting 6 14.4
2015-Jul-04 22:25 356 0 gusting 3 14.4
2015-Jul-04 22:15 001 2 gusting 6 14.4
2015-Jul-04 22:05 354 2 gusting 6 15.0
2015-Jul-04 21:55 347 1 gusting 6 15.0
2015-Jul-04 21:45 338 3 gusting 8 15.0
2015-Jul-04 21:35 342 2 gusting 6 15.0
2015-Jul-04 21:25 350 3 gusting 7 15.0
2015-Jul-04 21:15 342 2 gusting 7 15.6
2015-Jul-04 21:05 017 1 gusting 8 15.6
2015-Jul-04 20:55 018 3 gusting 8 15.6
2015-Jul-04 20:45 021 3 gusting 8 15.6
2015-Jul-04 20:35 021 0 gusting 3 16.1
2015-Jul-04 20:25 023 1 gusting 4 16.1
2015-Jul-04 20:15 034 1 gusting 6 16.1
2015-Jul-04 20:05 028 0 gusting 5 16.7
2015-Jul-04 18:35 338 1 gusting 6 19.4
2015-Jul-04 18:25 326 1 gusting 6 19.4
2015-Jul-04 18:15 333 3 gusting 8 20.0
2015-Jul-04 18:05 324 3 gusting 8 20.0
2015-Jul-04 17:55 336 3 gusting 13 20.6
2015-Jul-04 17:45 343 4 gusting 11 20.6
2015-Jul-04 17:35 339 5 gusting 10 21.1
2015-Jul-04 17:25 347 5 gusting 13 21.1
2015-Jul-04 17:15 339 4 gusting 9 21.7
2015-Jul-04 17:05 317 3 gusting 9 22.2
2015-Jul-04 16:55 325 1 gusting 7 22.2
2015-Jul-04 16:45 349 1 gusting 6 22.2
2015-Jul-04 16:35 004 2 gusting 6 22.2
2015-Jul-04 16:25 335 2 gusting 10 22.2
2015-Jul-04 16:15 348 3 gusting 9 22.8
2015-Jul-04 16:05 337 3 gusting 8 23.3
2015-Jul-04 15:55 341 2 gusting 5 23.3
2015-Jul-04 15:45 350 4 gusting 9 23.3
2015-Jul-04 15:35 338 2 gusting 7 23.3
2015-Jul-04 15:25 337 2 gusting 6 23.9
2015-Jul-04 15:15 344 3 gusting 8 23.9
2015-Jul-04 15:05 333 2 gusting 7 25.0